Time,TemperatureF,DewpointF,PressureIn,WindDirection,WindDirectionDegrees,WindSpeedMPH,WindSpeedGustMPH,Humidity,HourlyPrecipIn,Conditions,Clouds,dailyrainin,SoftwareType,DateUTC
2013-03-18 00:03:00,25.0,6.0,30.26,North,9,3.0,9.0,43,0.00,,,0.00,,2013-03-18 04:03:00,
2013-03-18 00:13:00,25.0,6.0,30.26,North,9,3.0,9.0,43,0.00,,,0.00,,2013-03-18 04:13:00,
2013-03-18 00:23:00,24.0,6.0,30.26,North,7,1.0,5.0,45,0.00,,,0.00,,2013-03-18 04:23:00,
2013-03-18 00:33:00,24.0,6.0,30.26,North,7,1.0,5.0,45,0.00,,,0.00,,2013-03-18 04:33:00,
2013-03-18 00:42:00,24.0,6.0,30.26,North,7,1.0,5.0,45,0.00,,,0.00,,2013-03-18 04:42:00,
2013-03-18 00:53:00,24.0,6.0,30.27,NNE,16,4.0,10.0,46,0.00,,,0.00,,2013-03-18 04:53:00,
2013-03-18 01:03:00,24.0,6.0,30.27,North,0,3.0,9.0,46,0.00,,,0.00,,2013-03-18 05:03:00,
2013-03-18 01:12:00,24.0,6.0,30.27,North,0,3.0,9.0,46,0.00,,,0.00,,2013-03-18 05:12:00,
2013-03-18 01:22:00,23.0,4.0,30.28,North,356,6.0,11.0,43,0.00,,,0.00,,2013-03-18 05:22:00,
2013-03-18 01:32:00,23.0,4.0,30.30,NNW,347,2.0,10.0,43,0.00,,,0.00,,2013-03-18 05:32:00,
2013-03-18 01:43:00,23.0,4.0,30.30,NNW,347,2.0,10.0,43,0.00,,,0.00,,2013-03-18 05:43:00,
2013-03-18 01:52:00,23.0,4.0,30.29,NNW,347,4.0,8.0,44,0.00,,,0.00,,2013-03-18 05:52:00,
2013-03-18 02:02:00,23.0,3.0,30.30,North,359,1.0,8.0,42,0.00,,,0.00,,2013-03-18 06:02:00,
2013-03-18 02:12:00,23.0,3.0,30.30,North,359,1.0,8.0,42,0.00,,,0.00,,2013-03-18 06:12:00,
2013-03-18 02:22:00,22.0,4.0,30.30,North,359,3.0,6.0,45,0.00,,,0.00,,2013-03-18 06:22:00,
2013-03-18 02:32:00,22.0,4.0,30.30,North,359,2.0,4.0,45,0.00,,,0.00,,2013-03-18 06:32:00,
2013-03-18 02:42:00,22.0,4.0,30.30,North,359,2.0,4.0,45,0.00,,,0.00,,2013-03-18 06:42:00,
2013-03-18 02:53:00,21.0,5.0,30.32,NNE,21,3.0,8.0,49,0.00,,,0.00,,2013-03-18 06:53:00,
2013-03-18 03:02:00,21.0,5.0,30.32,NNE,22,2.0,8.0,50,0.00,,,0.00,,2013-03-18 07:02:00,
2013-03-18 03:12:00,21.0,5.0,30.32,NNE,22,2.0,8.0,50,0.00,,,0.00,,2013-03-18 07:12:00,
2013-03-18 03:22:00,21.0,4.0,30.32,North,11,6.0,12.0,46,0.00,,,0.00,,2013-03-18 07:22:00,
2013-03-18 03:33:00,21.0,4.0,30.33,North,7,6.0,9.0,47,0.00,,,0.00,,2013-03-18 07:33:00,
2013-03-18 03:42:00,21.0,4.0,30.33,North,7,6.0,9.0,47,0.00,,,0.00,,2013-03-18 07:42:00,
2013-03-18 03:53:00,20.0,4.0,30.33,North,6,4.0,10.0,49,0.00,,,0.00,,2013-03-18 07:53:00,
2013-03-18 04:02:00,20.0,4.0,30.33,North,6,6.0,-999.0,48,-99.99,,,-99.99,,2013-03-18 08:02:00,
2013-03-18 04:12:00,20.0,4.0,30.33,North,6,6.0,-999.0,48,-99.99,,,-99.99,,2013-03-18 08:12:00,
2013-03-18 04:22:00,20.0,3.0,30.33,NNE,16,0.0,-999.0,47,-99.99,,,-99.99,,2013-03-18 08:22:00,
2013-03-18 04:32:00,19.0,2.0,30.34,NNE,12,0.0,-999.0,46,-99.99,,,-99.99,,2013-03-18 08:32:00,
2013-03-18 04:43:00,19.0,2.0,30.34,NNE,12,0.0,-999.0,46,-99.99,,,-99.99,,2013-03-18 08:43:00,
2013-03-18 04:53:00,19.0,2.0,30.34,North,9,6.0,-999.0,46,-99.99,,,-99.99,,2013-03-18 08:53:00,
2013-03-18 05:02:00,19.0,1.0,30.34,NNE,16,8.0,-999.0,45,-99.99,,,-99.99,,2013-03-18 09:02:00,
2013-03-18 05:12:00,19.0,1.0,30.34,NNE,16,8.0,-999.0,45,-99.99,,,-99.99,,2013-03-18 09:12:00,
2013-03-18 05:22:00,19.0,0.0,30.35,North,0,2.0,-999.0,43,-99.99,,,-99.99,,2013-03-18 09:22:00,
2013-03-18 05:33:00,19.0,0.0,30.34,North,0,3.0,-999.0,43,-99.99,,,-99.99,,2013-03-18 09:33:00,
2013-03-18 05:43:00,19.0,0.0,30.34,North,0,3.0,-999.0,43,-99.99,,,-99.99,,2013-03-18 09:43:00,
2013-03-18 05:53:00,18.0,1.0,30.35,North,6,4.0,-999.0,47,-99.99,,,-99.99,,2013-03-18 09:53:00,
2013-03-18 06:03:00,18.0,0.0,30.36,North,6,1.0,-999.0,45,-99.99,,,-99.99,,2013-03-18 10:03:00,
2013-03-18 06:13:00,18.0,0.0,30.36,North,6,1.0,-999.0,45,-99.99,,,-99.99,,2013-03-18 10:13:00,
2013-03-18 06:23:00,18.0,0.0,30.37,North,0,3.0,-999.0,45,-99.99,,,-99.99,,2013-03-18 10:23:00,
2013-03-18 06:33:00,17.0,0.0,30.37,North,0,0.0,-999.0,47,-99.99,,,-99.99,,2013-03-18 10:33:00,
2013-03-18 06:42:00,17.0,0.0,30.37,North,0,0.0,-999.0,47,-99.99,,,-99.99,,2013-03-18 10:42:00,
2013-03-18 06:53:00,17.0,1.0,30.38,North,0,3.0,-999.0,49,-99.99,,,-99.99,,2013-03-18 10:53:00,
2013-03-18 07:03:00,17.0,1.0,30.38,North,0,0.0,-999.0,48,-99.99,,,-99.99,,2013-03-18 11:03:00,
2013-03-18 07:13:00,17.0,1.0,30.38,North,0,0.0,-999.0,48,-99.99,,,-99.99,,2013-03-18 11:13:00,
2013-03-18 07:22:00,17.0,1.0,30.38,North,357,0.0,-999.0,49,-99.99,,,-99.99,,2013-03-18 11:22:00,
2013-03-18 07:32:00,16.0,0.0,30.39,North,357,0.0,-999.0,49,-99.99,,,-99.99,,2013-03-18 11:32:00,
2013-03-18 07:42:00,16.0,0.0,30.39,North,357,0.0,-999.0,49,-99.99,,,-99.99,,2013-03-18 11:42:00,
2013-03-18 07:53:00,16.0,0.0,30.39,North,357,0.0,-999.0,49,-99.99,,,-99.99,,2013-03-18 11:53:00,
2013-03-18 08:03:00,17.0,2.0,30.39,North,357,4.0,-999.0,50,-99.99,,,-99.99,,2013-03-18 12:03:00,
2013-03-18 08:12:00,17.0,2.0,30.39,North,357,4.0,-999.0,50,-99.99,,,-99.99,,2013-03-18 12:12:00,
2013-03-18 08:22:00,18.0,0.0,30.40,North,0,7.0,-999.0,45,-99.99,,,-99.99,,2013-03-18 12:22:00,
2013-03-18 08:32:00,19.0,0.0,30.39,North,0,0.0,-999.0,43,-99.99,,,-99.99,,2013-03-18 12:32:00,
2013-03-18 08:43:00,19.0,0.0,30.39,North,0,0.0,-999.0,43,-99.99,,,-99.99,,2013-03-18 12:43:00,
2013-03-18 08:52:00,21.0,1.0,30.40,North,11,4.0,-999.0,41,-99.99,,,-99.99,,2013-03-18 12:52:00,
2013-03-18 09:02:00,21.0,-1.0,30.40,NNE,20,4.0,-999.0,37,-99.99,,,-99.99,,2013-03-18 13:02:00,
2013-03-18 09:12:00,21.0,-1.0,30.40,NNE,20,4.0,-999.0,37,-99.99,,,-99.99,,2013-03-18 13:12:00,
2013-03-18 09:22:00,22.0,-1.0,30.40,NE,46,3.0,-999.0,35,-99.99,,,-99.99,,2013-03-18 13:22:00,
2013-03-18 09:33:00,23.0,-1.0,30.41,NE,37,5.0,-999.0,35,-99.99,,,-99.99,,2013-03-18 13:33:00,
2013-03-18 09:42:00,23.0,-1.0,30.41,NE,37,5.0,-999.0,35,-99.99,,,-99.99,,2013-03-18 13:42:00,
2013-03-18 09:52:00,24.0,-1.0,30.40,North,11,5.0,-999.0,33,-99.99,,,-99.99,,2013-03-18 13:52:00,
2013-03-18 10:02:00,24.0,0.0,30.40,NNE,29,0.0,-999.0,34,-99.99,,,-99.99,,2013-03-18 14:02:00,
2013-03-18 10:12:00,24.0,0.0,30.40,NNE,29,0.0,-999.0,34,-99.99,,,-99.99,,2013-03-18 14:12:00,
2013-03-18 10:22:00,25.0,0.0,30.39,North,0,0.0,-999.0,33,-99.99,,,-99.99,,2013-03-18 14:22:00,
2013-03-18 10:32:00,26.0,2.0,30.39,NNE,27,6.0,-999.0,34,-99.99,,,-99.99,,2013-03-18 14:32:00,
2013-03-18 10:42:00,26.0,2.0,30.39,NNE,27,6.0,-999.0,34,-99.99,,,-99.99,,2013-03-18 14:42:00,
2013-03-18 10:52:00,27.0,0.0,30.39,NNE,33,0.0,-999.0,31,-99.99,,,-99.99,,2013-03-18 14:52:00,
2013-03-18 11:02:00,26.0,-1.0,30.38,NNE,33,0.0,-999.0,30,-99.99,,,-99.99,,2013-03-18 15:02:00,
2013-03-18 11:12:00,26.0,-1.0,30.38,NNE,33,0.0,-999.0,30,-99.99,,,-99.99,,2013-03-18 15:12:00,
2013-03-18 11:22:00,28.0,1.0,30.39,NE,36,3.0,-999.0,30,-99.99,,,-99.99,,2013-03-18 15:22:00,
2013-03-18 11:33:00,28.0,0.0,30.37,NNE,33,0.0,-999.0,29,-99.99,,,-99.99,,2013-03-18 15:33:00,
2013-03-18 11:43:00,28.0,0.0,30.37,NNE,33,0.0,-999.0,29,-99.99,,,-99.99,,2013-03-18 15:43:00,
2013-03-18 11:52:00,29.0,1.0,30.37,East,92,6.0,-999.0,29,-99.99,,,-99.99,,2013-03-18 15:52:00,
2013-03-18 12:03:00,29.0,1.0,30.36,East,82,0.0,-999.0,29,-99.99,,,-99.99,,2013-03-18 16:03:00,
2013-03-18 12:12:00,29.0,1.0,30.36,East,82,0.0,-999.0,29,-99.99,,,-99.99,,2013-03-18 16:12:00,
2013-03-18 12:23:00,31.0,3.0,30.36,ENE,73,0.0,-999.0,29,-99.99,,,-99.99,,2013-03-18 16:23:00,
2013-03-18 12:33:00,31.0,3.0,30.35,ENE,64,0.0,-999.0,30,-99.99,,,-99.99,,2013-03-18 16:33:00,
2013-03-18 12:42:00,31.0,3.0,30.35,ENE,64,0.0,-999.0,30,-99.99,,,-99.99,,2013-03-18 16:42:00,
2013-03-18 12:53:00,32.0,2.0,30.35,ENE,68,0.0,-999.0,27,-99.99,,,-99.99,,2013-03-18 16:53:00,
2013-03-18 13:02:00,33.0,3.0,30.36,ENE,66,9.0,-999.0,27,-99.99,,,-99.99,,2013-03-18 17:02:00,
2013-03-18 13:12:00,33.0,3.0,30.36,ENE,66,9.0,-999.0,27,-99.99,,,-99.99,,2013-03-18 17:12:00,
2013-03-18 13:22:00,33.0,2.0,30.36,ESE,109,4.0,-999.0,26,-99.99,,,-99.99,,2013-03-18 17:22:00,
2013-03-18 13:32:00,34.0,3.0,30.35,ESE,112,4.0,-999.0,26,-99.99,,,-99.99,,2013-03-18 17:32:00,
2013-03-18 13:42:00,34.0,3.0,30.35,ESE,112,4.0,-999.0,26,-99.99,,,-99.99,,2013-03-18 17:42:00,
2013-03-18 13:52:00,34.0,3.0,30.34,SSE,152,0.0,-999.0,26,-99.99,,,-99.99,,2013-03-18 17:52:00,
2013-03-18 14:02:00,34.0,3.0,30.33,SSE,151,5.0,-999.0,26,-99.99,,,-99.99,,2013-03-18 18:02:00,
2013-03-18 14:12:00,34.0,3.0,30.33,SSE,151,5.0,-999.0,26,-99.99,,,-99.99,,2013-03-18 18:12:00,
2013-03-18 14:22:00,35.0,2.0,30.32,SSE,162,0.0,10.0,24,0.00,,,0.00,,2013-03-18 18:22:00,
2013-03-18 14:32:00,35.0,1.0,30.32,SSE,162,0.0,5.0,23,0.00,,,0.00,,2013-03-18 18:32:00,
2013-03-18 14:42:00,35.0,1.0,30.32,SSE,162,0.0,5.0,23,0.00,,,0.00,,2013-03-18 18:42:00,
2013-03-18 14:52:00,35.0,1.0,30.31,SSE,163,1.0,7.0,23,0.00,,,0.00,,2013-03-18 18:52:00,
2013-03-18 15:02:00,36.0,3.0,30.30,SE,143,3.0,9.0,24,0.00,,,0.00,,2013-03-18 19:02:00,
2013-03-18 15:12:00,36.0,3.0,30.30,SE,143,3.0,9.0,24,0.00,,,0.00,,2013-03-18 19:12:00,
2013-03-18 15:22:00,36.0,3.0,30.29,SSE,151,5.0,7.0,24,0.00,,,0.00,,2013-03-18 19:22:00,
2013-03-18 15:33:00,36.0,2.0,30.29,East,100,0.0,10.0,23,0.00,,,0.00,,2013-03-18 19:33:00,
2013-03-18 15:42:00,36.0,2.0,30.29,East,100,0.0,10.0,23,0.00,,,0.00,,2013-03-18 19:42:00,
2013-03-18 15:52:00,37.0,4.0,30.28,ESE,103,1.0,6.0,24,0.00,,,0.00,,2013-03-18 19:52:00,
2013-03-18 16:02:00,37.0,3.0,30.28,SE,124,4.0,10.0,23,0.00,,,0.00,,2013-03-18 20:02:00,
2013-03-18 16:12:00,37.0,3.0,30.28,SE,124,4.0,10.0,23,0.00,,,0.00,,2013-03-18 20:12:00,
2013-03-18 16:23:00,37.0,3.0,30.27,SSE,161,5.0,8.0,23,0.00,,,0.00,,2013-03-18 20:23:00,
2013-03-18 16:33:00,36.0,2.0,30.27,SSE,158,3.0,9.0,23,0.00,,,0.00,,2013-03-18 20:33:00,
2013-03-18 16:42:00,36.0,2.0,30.27,SSE,158,3.0,9.0,23,0.00,,,0.00,,2013-03-18 20:42:00,
2013-03-18 16:52:00,36.0,4.0,30.25,SE,145,4.0,10.0,26,0.00,,,0.00,,2013-03-18 20:52:00,
2013-03-18 17:02:00,36.0,4.0,30.24,SE,130,7.0,12.0,26,0.00,,,0.00,,2013-03-18 21:02:00,
2013-03-18 17:12:00,36.0,4.0,30.24,SE,130,7.0,12.0,26,0.00,,,0.00,,2013-03-18 21:12:00,
2013-03-18 17:22:00,35.0,4.0,30.24,SE,139,4.0,10.0,27,0.00,,,0.00,,2013-03-18 21:22:00,
2013-03-18 17:32:00,35.0,6.0,30.24,SE,140,4.0,11.0,29,0.00,,,0.00,,2013-03-18 21:32:00,
2013-03-18 17:43:00,35.0,6.0,30.24,SE,140,4.0,11.0,29,0.00,,,0.00,,2013-03-18 21:43:00,
2013-03-18 17:53:00,34.0,6.0,30.25,SE,134,5.0,12.0,30,0.00,,,0.00,,2013-03-18 21:53:00,
2013-03-18 18:03:00,34.0,6.0,30.25,SE,140,7.0,12.0,30,0.00,,,0.00,,2013-03-18 22:03:00,
2013-03-18 18:13:00,34.0,6.0,30.25,SE,140,7.0,12.0,30,0.00,,,0.00,,2013-03-18 22:13:00,
2013-03-18 18:23:00,33.0,8.0,30.24,SE,125,4.0,13.0,35,0.00,,,0.00,,2013-03-18 22:23:00,
2013-03-18 18:33:00,33.0,10.0,30.24,ESE,122,6.0,15.0,38,0.00,,,0.00,,2013-03-18 22:33:00,
2013-03-18 18:42:00,33.0,10.0,30.24,ESE,122,6.0,15.0,38,0.00,,,0.00,,2013-03-18 22:42:00,
2013-03-18 18:53:00,32.0,10.0,30.25,SE,132,7.0,14.0,40,0.00,,,0.00,,2013-03-18 22:53:00,
2013-03-18 19:03:00,32.0,12.0,30.25,SE,136,5.0,14.0,42,0.00,,,0.00,,2013-03-18 23:03:00,
2013-03-18 19:12:00,32.0,12.0,30.25,SE,136,5.0,14.0,42,0.00,,,0.00,,2013-03-18 23:12:00,
2013-03-18 19:23:00,31.0,12.0,30.24,SE,133,6.0,9.0,44,0.00,,,0.00,,2013-03-18 23:23:00,
2013-03-18 19:32:00,31.0,13.0,30.22,SE,124,4.0,10.0,46,0.00,,,0.00,,2013-03-18 23:32:00,
2013-03-18 19:42:00,31.0,13.0,30.22,SE,124,4.0,10.0,46,0.00,,,0.00,,2013-03-18 23:42:00,
2013-03-18 19:53:00,31.0,14.0,30.22,SE,143,6.0,16.0,49,0.00,,,0.00,,2013-03-18 23:53:00,
2013-03-18 20:02:00,31.0,15.0,30.22,SE,135,7.0,12.0,52,0.00,,,0.00,,2013-03-19 00:02:00,
2013-03-18 20:12:00,31.0,15.0,30.22,SE,135,7.0,12.0,52,0.00,,,0.00,,2013-03-19 00:12:00,
2013-03-18 20:23:00,30.0,15.0,30.22,SE,132,6.0,11.0,54,0.00,,,0.00,,2013-03-19 00:23:00,
2013-03-18 20:32:00,30.0,16.0,30.22,SE,143,5.0,11.0,55,0.00,,,0.00,,2013-03-19 00:32:00,
2013-03-18 20:42:00,30.0,16.0,30.22,SE,143,5.0,11.0,55,0.00,,,0.00,,2013-03-19 00:42:00,
2013-03-18 20:52:00,30.0,17.0,30.22,SE,128,11.0,15.0,58,0.00,,,0.00,,2013-03-19 00:52:00,
2013-03-18 21:02:00,30.0,17.0,30.22,SE,135,6.0,16.0,59,0.00,,,0.00,,2013-03-19 01:02:00,
2013-03-18 21:12:00,30.0,17.0,30.22,SE,135,6.0,16.0,59,0.00,,,0.00,,2013-03-19 01:12:00,
2013-03-18 21:22:00,30.0,18.0,30.21,SE,141,8.0,15.0,61,0.00,,,0.00,,2013-03-19 01:22:00,
2013-03-18 21:32:00,30.0,19.0,30.20,SSE,153,10.0,16.0,62,0.00,,,0.00,,2013-03-19 01:32:00,
2013-03-18 21:43:00,30.0,19.0,30.20,SSE,153,10.0,16.0,62,0.00,,,0.00,,2013-03-19 01:43:00,
2013-03-18 21:52:00,30.0,19.0,30.20,SE,140,9.0,12.0,63,0.00,,,0.00,,2013-03-19 01:52:00,
2013-03-18 22:03:00,30.0,19.0,30.20,SE,131,11.0,15.0,64,0.00,,,0.00,,2013-03-19 02:03:00,
2013-03-18 22:12:00,30.0,19.0,30.20,SE,131,11.0,15.0,64,0.00,,,0.00,,2013-03-19 02:12:00,
2013-03-18 22:22:00,30.0,20.0,30.20,SE,131,4.0,13.0,65,0.00,,,0.00,,2013-03-19 02:22:00,
2013-03-18 22:33:00,30.0,20.0,30.20,SE,130,8.0,12.0,66,0.00,,,0.00,,2013-03-19 02:33:00,
2013-03-18 22:42:00,30.0,20.0,30.20,SE,130,8.0,12.0,66,0.00,,,0.00,,2013-03-19 02:42:00,
2013-03-18 22:53:00,30.0,20.0,30.19,SE,131,7.0,9.0,67,0.00,,,0.00,,2013-03-19 02:53:00,
2013-03-18 23:02:00,30.0,21.0,30.19,ESE,121,6.0,10.0,68,0.00,,,0.00,,2013-03-19 03:02:00,
2013-03-18 23:12:00,30.0,21.0,30.19,ESE,121,6.0,10.0,68,0.00,,,0.00,,2013-03-19 03:12:00,
2013-03-18 23:22:00,30.0,22.0,30.19,ESE,122,7.0,15.0,72,0.00,,,0.00,,2013-03-19 03:22:00,
2013-03-18 23:33:00,29.0,22.0,30.18,ESE,107,7.0,13.0,75,0.00,,,0.00,,2013-03-19 03:33:00,
2013-03-18 23:43:00,29.0,22.0,30.18,ESE,107,7.0,13.0,75,0.00,,,0.00,,2013-03-19 03:43:00,
2013-03-18 23:54:00,29.0,24.0,30.16,East,101,4.0,10.0,80,0.00,,,0.00,,2013-03-19 03:54:00,